STARLINK-35153, 65625

Orbit data source: Space-Track

STARLINK-35153, 65625 is a payload satellite owned by SpaceX/Seattle (US) in LEO that was launched on Thu, 18 Sep 2025 UTC via an FALCON 9 launch vehicle from the Air Force Eastern Test Range (AFETR). Payload-class satellites include a variety of spacecraft equipped with specific instruments for various scientific and technological missions. These include communications satellites like Starlink; space stations such as the ISS; scientific satellites like the Hubble; Earth observation satellites from companies like Planet Labs, Umbra, and HawkEye 360; GPS; miniature CubeSats for education and research; and military/defense satellites.

Loading next visibility...
Identifier
65625, 2025-210D
Orbit
LEO
Country
Flag of USUS
Related business
Manufacturer
SpaceX/Seattle
Mission
Operational Commercial Communications
Bus & Motor
STARLINK V2MO, Unknown motor
Mass
575 kg wet, ~530 kg dry
Launch date (UTC)
2025-09-18 (9 months ago)
Launch vehicle
FALCON 9
Launch site
Air Force Eastern Test Range (AFETR)
Object type
Payload
Rocket body
Debris
Shape & HBR
Box + 2 Pan, 17.7 m
Radar Cross Section
36.964 m², Large (>1 m²)

Expand to show TLE details & history
Last TLE update: 9 hours ago

TLE from 9 hours ago
0 STARLINK-35153
1 65625U 25210D   26171.45717161  .00016785  00000-0  50652-3 0  9991
2 65625  53.1582 187.7242 0000991  80.0823 280.0291 15.34416247 43412
Epoch: 2026-06-20T10:58Z
TLE epoch observation values (Epoch: 2026-06-20T10:58:19.627Z)
Latitude
-0.00004°
Longitude
114.47087°
Altitude
463.438 km
Speed
7.636 km/s
True Right ascension
12h 30m 53s
True Declination
0° 00' 00"
Sunlit
Object was in daylight at epoch
Visualization orbit readout
Latitude
Unknown
Longitude
Unknown
Altitude
Unknown
Speed
Unknown
Apparent Right ascension
Unknown
Apparent Declination
Unknown
Sunlit
N/A
Visualization observer readout
Local Sidereal Time
07:16:22
Azimuth
Unknown
Elevation
Unknown
Doppler factor
Unknown
Orbital elements
Apogee altitude
463.59 km
Perigee altitude
462.234 km
Semi-major axis
6,841.049 km
Eccentricity
0.0001
Inclination
53.1582°
RAAN
187.7242°
Arg. of periapsis
80.0823°
True anomaly
280.01792°
Mean anomaly
280.0291°
Eccentric anomaly
280.02351°
Mean motion
3.83583 °/min
Orbital period
93.85 mins
BSTAR
0.00050652
Loading maneuver chart data...
Computing Atmospheric mass density...
Loading historical data...
Loading historical data...
Loading historical data...
Loading historical data...
Loading historical data...
Loading historical data...
Loading historical data...

Documentation

Showing up to 5 results
|